Location: Jaite
(41.2884°N, 81.5737°W)
Time: 12:37:44
(UTC+00:00)

Cosmos 1378 Rocket - Pass Details

Date: 15 November 2025
Orbit: 595 x 619 km, 82.5° (Epoch: 06 December)

Event Time Altitude Azimuth Distance (km) Brightness Sun altitude
Rises 10:59:28 0° 196° (SSW) 2,824 6.9 -14.3°
Reaches altitude 10° 11:01:41 10° 200° (SSW) 1,925 6.0 -13.8°
Maximum altitude 11:05:52 57° 280° (W) 703 3.5 -13.1°
Drops below altitude 10° 11:10:06 10° 360° (N) 1,940 6.0 -12.3°
Sets 11:12:21 0° 4° (N) 2,848 6.9 -11.9°
